Weather History for Boston, MA

Change the Weather History Date:

Tuesday, February 18, 2014

  Actual Average Record
Temperature  
Mean Temperature 25 °F 32 °F  
Max Temperature 35 °F 39 °F 66 °F (1981)
Min Temperature 14 °F 25 °F -4 °F (1958)
Degree Days  
Heating Degree Days 40 33  
Month to date heating degree days 670 614  
Since 1 July heating degree days 3816 3724  
Cooling Degree Days 0 0  
Month to date cooling degree days 0 0  
Year to date cooling degree days 0 0  
Moisture  
Dew Point 20 °F    
Average Humidity 63    
Maximum Humidity 92    
Minimum Humidity 34    
Precipitation  
Precipitation 0.22 in 0.12 in 1.91 in (1998)
Month to date precipitation 3.56 2.02  
Year to date precipitation 6.80 5.38  
Sea Level Pressure  
Sea Level Pressure 30.07 in    
Wind  
Wind Speed 11 mph (North)    
Max Wind Speed 23 mph    
Max Gust Speed 28 mph    
Visibility 6 miles    
Events Rain , Snow    
T = Trace of Precipitation, MM = Missing Value Source: NWS Daily Summary

Daily Weather History Graph

Daily Weather History Graph

Search for Another Location

Airport:

Trip Planner

Search our weather history database for the weather conditions in past years. The results will help you decide how hot, cold, wet, or windy it might be!

Date:

Astronomy

Feb. 18, 2014 Rise Set
Actual Time 6:36 AM EST 5:20 PM EST
Civil Twilight 6:07 AM EST 5:48 PM EST
Nautical Twilight 5:34 AM EST 6:21 PM EST
Astronomical Twilight 5:02 AM EST 6:54 PM EST
Moon 9:16 PM EST 8:02 AM EST
Length of Visible Light 11h 41m
Length of Day
10h 43m
Waning Gibbous, 87% of the Moon is Illuminated
Feb 18
Waning Gibbous
Feb 22
Last Quarter
Mar 1
New
Mar 8
First Quarter
Mar 16
Full

Hourly Weather History & Observations

Time (EST) Temp. Windchill Dew Point Humidity Pressure Visibility Wind Dir Wind Speed Gust Speed Precip Events Conditions
12:54 AM 19.0 °F 12.3 °F -5.1 °F 34% 30.36 in 10.0 mi North 4.6 mph - N/A   Scattered Clouds
1:54 AM 18.0 °F 11.1 °F -5.1 °F 36% 30.37 in 10.0 mi NW 4.6 mph - N/A   Scattered Clouds
2:54 AM 15.1 °F 9.4 °F -0.9 °F 49% 30.34 in 10.0 mi NNE 3.5 mph - N/A   Overcast
3:54 AM 17.1 °F 11.7 °F -0.9 °F 45% 30.35 in 10.0 mi North 3.5 mph - N/A   Overcast
4:54 AM 16.0 °F 7.4 °F 3.0 °F 57% 30.32 in 10.0 mi NNE 5.8 mph - N/A   Overcast
5:54 AM 18.0 °F 11.1 °F 3.9 °F 54% 30.33 in 10.0 mi North 4.6 mph - N/A   Overcast
6:54 AM 19.0 °F 13.9 °F 3.9 °F 52% 30.33 in 10.0 mi North 3.5 mph - N/A   Mostly Cloudy
7:54 AM 19.0 °F 10.0 °F 7.0 °F 59% 30.30 in 10.0 mi NNE 6.9 mph - N/A   Overcast
8:54 AM 21.0 °F 16.2 °F 12.0 °F 68% 30.27 in 10.0 mi NNE 3.5 mph - N/A   Overcast
9:54 AM 26.1 °F 16.8 °F 17.1 °F 69% 30.24 in 10.0 mi East 9.2 mph - N/A   Overcast
10:54 AM 30.0 °F 17.5 °F 19.9 °F 66% 30.19 in 10.0 mi ESE 19.6 mph - N/A   Overcast
11:29 AM 30.2 °F 17.8 °F 21.2 °F 69% 30.16 in 5.0 mi ESE 19.6 mph - 0.00 in Snow Light Snow
11:41 AM 30.2 °F 17.1 °F 23.0 °F 75% 30.15 in 1.8 mi ESE 21.9 mph - 0.00 in Snow Light Snow
11:54 AM 30.9 °F 18.4 °F 23.0 °F 72% 30.14 in 3.0 mi SE 20.7 mph - 0.00 in Snow Light Snow
12:02 PM 30.2 °F 17.4 °F 24.8 °F 80% 30.14 in 1.8 mi SE 20.7 mph - 0.00 in Snow Light Snow
12:43 PM 30.2 °F 19.3 °F 26.6 °F 86% 30.12 in 0.8 mi ESE 15.0 mph - 0.00 in Snow Light Snow
12:54 PM 30.0 °F 19.5 °F 27.0 °F 88% 30.10 in 0.8 mi ESE 13.8 mph - 0.01 in Snow Light Snow
1:32 PM 30.2 °F 18.9 °F 28.4 °F 93% 30.05 in 0.8 mi ESE 16.1 mph - 0.01 in Snow Light Snow
1:49 PM 30.2 °F 18.1 °F 28.4 °F 93% 30.03 in 0.8 mi ESE 18.4 mph - 0.02 in Snow Light Snow
1:54 PM 30.9 °F 18.4 °F 28.9 °F 92% 30.03 in 0.8 mi ESE 20.7 mph - 0.02 in Snow Light Snow
2:54 PM 32.0 °F 20.8 °F 30.9 °F 96% 29.98 in 0.8 mi ESE 17.3 mph - 0.06 in Snow Light Snow
3:31 PM 33.8 °F 24.3 °F 30.2 °F 87% 29.94 in 0.8 mi East 13.8 mph - 0.04 in Snow Light Snow
3:54 PM 33.1 °F 23.4 °F 30.9 °F 92% 29.91 in 0.8 mi ESE 13.8 mph - 0.07 in Snow Light Snow
4:02 PM 33.8 °F 23.5 °F 30.2 °F 87% 29.91 in 1.0 mi ESE 16.1 mph - 0.01 in Snow Light Snow
4:10 PM 33.8 °F 24.3 °F 30.2 °F 87% 29.90 in 1.0 mi ESE 13.8 mph - 0.01 in Snow Light Snow
4:54 PM 33.1 °F 30.0 °F 30.0 °F 89% 29.88 in 5.0 mi SSW 3.5 mph - 0.04 in Rain , Snow Light Snow
5:34 PM 33.8 °F 28.6 °F 30.2 °F 87% 29.89 in 2.5 mi NW 5.8 mph - 0.00 in Rain Light Rain
5:47 PM 33.8 °F 24.3 °F 30.2 °F 87% 29.89 in 2.5 mi WNW 13.8 mph 19.6 mph 0.01 in   Light Freezing Drizzle
5:54 PM 32.0 °F 22.5 °F 28.9 °F 88% 29.89 in 2.5 mi NW 12.7 mph - 0.01 in   Light Freezing Drizzle
6:03 PM 30.2 °F 20.2 °F 28.4 °F 93% 29.89 in 1.8 mi NW 12.7 mph - 0.00 in Snow Light Freezing Drizzle
6:10 PM 30.2 °F 20.2 °F 28.4 °F 93% 29.89 in 1.5 mi NNW 12.7 mph - 0.01 in Snow Light Snow
6:27 PM 32.0 °F 24.2 °F 28.4 °F 87% 29.88 in 2.5 mi NNW 9.2 mph - 0.01 in Snow Light Snow
6:37 PM 32.0 °F 24.2 °F 28.4 °F 87% 29.88 in 6.0 mi NNW 9.2 mph - 0.01 in   Mostly Cloudy
6:54 PM 30.9 °F 21.2 °F 28.9 °F 92% 29.89 in 10.0 mi WNW 12.7 mph - 0.01 in   Scattered Clouds
7:13 PM 30.2 °F 19.8 °F 26.6 °F 86% 29.90 in 9.0 mi WNW 13.8 mph - N/A   Overcast
7:54 PM 28.9 °F 17.7 °F 25.0 °F 85% 29.92 in 9.0 mi WNW 15.0 mph - N/A   Overcast
8:41 PM 28.4 °F 16.2 °F 24.8 °F 86% 29.94 in 8.0 mi WNW 17.3 mph - N/A   Overcast
8:54 PM 28.0 °F 16.1 °F 23.0 °F 81% 29.94 in 10.0 mi WNW 16.1 mph - N/A   Mostly Cloudy
9:10 PM 26.6 °F 14.3 °F 21.2 °F 80% 29.96 in 10.0 mi WNW 16.1 mph - N/A   Mostly Cloudy
9:54 PM 27.0 °F 14.7 °F 21.9 °F 81% 29.99 in 10.0 mi WNW 16.1 mph - N/A   Mostly Cloudy
10:03 PM 26.6 °F 14.7 °F 21.2 °F 80% 29.99 in 10.0 mi WNW 15.0 mph - N/A   Mostly Cloudy
10:07 PM 26.6 °F 14.3 °F 21.2 °F 80% 29.99 in 10.0 mi WNW 16.1 mph - N/A   Mostly Cloudy
10:54 PM 27.0 °F 16.7 °F 21.9 °F 81% 30.01 in 10.0 mi WNW 11.5 mph - N/A   Mostly Cloudy
11:54 PM 27.0 °F 17.3 °F 19.9 °F 75% 30.01 in 10.0 mi WNW 10.4 mph - N/A   Partly Cloudy